sat.trackr.live / text

‹ back to catalog

STARLINK-1284

NORAD 45390 · 2020-019AG

PAYLOAD ACTIVE UNKNOWN

§ Identity

Operator
Country
US
Launch date
2020-03-18
Launch site
AFETR
Launch vehicle
Mass (kg)
RCS (m²)

Purposes: comms

External: N2YO · Heavens-Above · Gunter

§ Orbital elements

Epoch: 2026-09-13T01:32:15.451008Z

Period
90.89 min
Inclination
53.0363°
Eccentricity
0.0006351
Mean motion
15.84358502 rev/d
Perigee alt
313.9 km
Apogee alt
322.4 km
Semi-major
6,696.3 km
B*
4.5005e-4
RAAN
285.5891°
Arg perigee
9.8300°
Mean anomaly
350.2846°
Rev number
35,964

§ Raw data

STARLINK-12841 45390U 20019AG  26256.06406772  .00105289  00000+0  45005-3 0  99972 45390  53.0363 285.5891 0006351   9.8300 350.2846 15.84358502359642

JSON: /api/v1/satellites/45390 · /tle

For live sub-satellite position, see the globe view (requires WebGL).

§ Visibility from observer

Set your observer location to see the next 7 days of passes ≥ 10°. The values pass through the URL so the page stays shareable.

No JS? Fill the form by hand. The geolocation button needs JavaScript.